NO-84
1 40654U 15025D 19080.38066489 .00010802 00000-0 15427-3 0 05678
2 40654 054.9864 219.6963 0145719 096.9791 264.7723 15.45533010098635
NO-83
1 40655U 15025E 19080.37374830 .00033409 00000-0 21801-3 0 06762
2 40655 054.9688 122.9466 0072549 151.5487 208.9223 15.71934332099642
DEORBITSAIL
1 40719U 15032E 19079.94241463 .00000344 00000-0 56382-4 0 9990
2 40719 097.9190 333.5419 0015095 233.4661 126.5160 14.76663327199017
NUDT-PHONESAT
1 40900U 15049B 19080.47531477 .00002440 00000-0 10842-3 0 9996
2 40900 97.4401 90.7002 0014309 131.7477 32.4432 15.22399802194086
XW-2A
1 40903U 15049E 19080.79095815 .00002130 00000-0 52700-4 0 9991
2 40903 97.3507 123.0105 0015646 105.2946 344.7279 15.41490558196554
XW-2C
1 40906U 15049H 19080.78425926 .00000883 00000-0 49922-4 0 9998
2 40906 97.4670 84.3468 0015989 141.6433 209.9040 15.15550760193520
XW-2D
1 40907U 15049J 19080.85591933 .00000885 00000-0 49774-4 0 9996
2 40907 97.4646 84.0954 0015430 138.6197 307.2967 15.15728854193559
LILACSAT-2
1 40908U 15049K 19080.42996568 .00000321 00000-0 21360-4 0 9999
2 40908 97.4776 82.6615 0016848 145.6360 351.1881 15.13725215193308
XW-2E
1 40909U 15049L 19080.31088638 .00001016 00000-0 53818-4 0 9993
2 40909 97.4598 86.1569 0015106 137.8143 347.6469 15.17578940193639
XW-2F
1 40910U 15049M 19080.70252477 .00000928 00000-0 50124-4 0 9990
2 40910 97.4622 85.7631 0016177 134.0222 315.0248 15.17094344193523
XW-2B
1 40911U 15049N 19080.74676292 .00000672 00000-0 38714-4 0 9997
2 40911 97.4677 84.6153 0015323 140.0593 274.2846 15.15660396193435
DCBB
1 40912U 15049P 19080.41081515 .00001461 00000-0 72095-4 0 9997
2 40912 97.4515 88.9289 0016612 119.9855 349.8309 15.19382341193755
TW-1C
1 40926U 15051B 19080.83179705 .00011084 00000-0 17424-3 0 9996
2 40926 97.1497 127.1827 0007733 355.9311 91.5377 15.53760390196350
TW-1A
1 40928U 15051D 19080.82666427 .00003672 00000-0 93230-4 0 9993
2 40928 97.1561 114.0800 0012611 44.5697 40.3716 15.40205371195491
IO-86
1 40931U 15052B 19080.19176183 .00000694 00000-0 74896-5 0 9992
2 40931 6.0003 334.7312 0013509 326.9153 33.0130 14.76600485188017
LQSat
1 40958U 15057A 19080.78421726 .00000005 00000-0 84347-5 0 9995
2 40958 97.9077 152.3450 0018542 161.9375 198.2490 14.73069985185716
AO-85
1 40967U 15058D 19080.35338418 .00000155 00000-0 34158-4 0 06328
2 40967 064.7753 069.6722 0208861 230.5020 127.7448 14.75899544094551
ATHENOXAT-1
1 41168U 15077C 19080.80408462 .00002006 00000-0 71612-4 0 9999
2 41168 14.9877 147.3964 0011646 298.0423 61.8720 15.13416617180499
ChubuSat-2
1 41338U 16012B 19080.86248004 .00000350 00000-0 20506-4 0 9994
2 41338 31.0041 349.2736 0013945 302.3844 57.5442 15.00109754169566
ChubuSat-3
1 41339U 16012C 19080.84244047 .00000350 00000-0 20475-4 0 9991
2 41339 31.0110 347.6138 0013787 310.2975 49.6457 15.00288031169552
Horyu-4
1 41340U 16012D 19080.87432195 .00000500 00000-0 31298-4 0 9991
2 41340 31.0056 339.6597 0013989 326.4845 33.4905 15.01195431169654
OUFTI-1
1 41458U 16025C 19080.80136412 .00001044 00000-0 58076-4 0 9998
2 41458 98.1045 163.1434 0165534 296.1848 62.2412 15.05498357159206
e-st@r-II
1 41459U 16025D 19080.46496612 .00000875 00000-0 49721-4 0 9990
2 41459 98.1048 162.5044 0166773 298.4875 59.9621 15.05163480159123
AAUSAT4
1 41460U 16025E 19080.81394485 .00001668 00000-0 88561-4 0 9992
2 41460 98.0972 163.8992 0157821 290.7177 67.7155 15.06917978159286
LO-87
1 41557U 16033B 19080.86316600 .00001309 00000-0 52195-4 0 9992
2 41557 97.4192 168.8950 0012433 249.1506 110.8402 15.26961484156535
NuSat2
1 41558U 16033C 19080.81175079 .00001347 00000-0 50662-4 0 9990
2 41558 97.4215 169.6045 0011446 251.1791 108.8207 15.28859357156557
Lapan A3
1 41603U 16040E 19080.82507817 .00000261 00000-0 15388-4 0 9999
2 41603 97.3723 141.6757 0013539 358.4934 113.8114 15.19680572152242
Swayam
1 41607U 16040J 19079.86026224 .00001493 00000-0 66323-4 0 9996
2 41607 97.3762 143.5473 0013156 354.6446 5.4648 15.23015118152203
Pratham
1 41783U 16059A 19079.93465510 .00000044 00000-0 17909-4 0 9991
2 41783 098.0788 141.4484 0032412 307.5621 052.2638 14.62978383132426
AlSat 1N
1 41789U 16059G 19080.75142593 .00000076 00000-0 23593-4 0 9993
2 41789 98.0814 144.0511 0026823 295.4565 64.3868 14.64223497132636
ScatSat
1 41790U 16059H 19079.58408122 .00000015 00000-0 15072-4 0 9993
2 41790 98.2217 126.7789 0017499 326.8400 33.1697 14.50892927131264
TY-1
1 41844U 16066D 19080.49121782 .00001833 00000-0 78250-4 0 9993
2 41844 97.4068 88.9201 0016392 136.4939 15.7907 15.24057764131107
Pegasus-1
1 41846U 16066F 19079.81342215 .00000254 00000-0 48293-4 0 9995
2 41846 098.7233 118.5324 0368542 145.4123 217.1645 14.37510120123645
CAS-2T
1 41847U 16066G 19080.68400692 .00000066 00000-0 19759-4 0 9993
2 41847 98.7181 119.9398 0366812 139.5957 223.3102 14.37964929124201
EO-88
1 42017U 17008BX 19080.15456079 .00001529 00000-0 63677-4 0 9995
2 42017 97.4125 148.1440 0007809 118.9178 241.2844 15.25241785116277
PHOENIX
1 42706U 98067LP 19080.67482090 .00105447 15235-4 34041-3 0 9999
2 42706 51.6257 5.1991 0004058 156.8340 203.2850 15.90767988105697
ZA-AeroSat
1 42713U 98067LU 19080.79496755 .00078516 00000-0 28701-3 0 9995
2 42713 51.6320 10.6271 0004056 148.1132 212.0119 15.87678202105297
NJUST-1
1 42722U 98067MB 19080.89277505 .00064214 00000-0 29379-3 0 9998
2 42722 51.6393 15.7470 0004561 165.5149 265.2883 15.83092335104308
LO-90
1 42725U 98067ME 19081.00301479 .00711173 30517-3 55170-3 0 9993
2 42725 51.6245 356.7588 0005425 203.2972 156.7892 16.14219761104470
nSIGHT1
1 42726U 98067MF 19080.32096039 .00018191 00000-0 16725-3 0 9995
2 42726 51.6381 44.6598 0004574 176.3643 183.7387 15.67747011103788
SNUSAT 1B
1 42727U 98067MG 19080.83997173 .00511010 14451-3 52314-3 0 9991
2 42727 51.6215 358.5695 0007560 191.5290 168.5552 16.10104124104399
SUSat
1 42730U 98067MK 19079.94531326 .10885211 12450-4 35996-3 0 9992
2 42730 51.6143 358.5732 0006672 231.8651 128.1776 16.44308785104146
Aoxiang-1
1 42735U 98067MQ 19080.85267752 .00068623 00000-0 28883-3 0 9998
2 42735 51.6307 13.8773 0004172 170.8592 242.1590 15.84828243105453
BeEagleSat
1 42736U 98067MR 19080.82764699 .00138546 18617-4 36213-3 0 9993
2 42736 51.6282 4.6792 0005163 180.3460 179.7545 15.94639754104267
CAS-4B
1 42759U 17034B 19080.86486380 .00000297 00000-0 31725-4 0 9993
2 42759 43.0191 358.6121 0010460 44.1558 6.4788 15.09513798 97413
CAS-4A
1 42761U 17034D 19080.18844387 .00000464 00000-0 41899-4 0 9995
2 42761 43.0184 1.9219 0010797 41.3768 104.9176 15.09590907 97309
UCLSat
1 42765U 17036A 19079.63477296 .00001313 00000-0 59569-4 0 9997
2 42765 97.3626 139.5269 0011634 178.1032 182.0251 15.22507220 96764
NIUSat
1 42766U 17036B 19080.09879960 .00000965 00000-0 46594-4 0 9990
2 42766 97.3624 138.6242 0016169 168.6988 191.4614 15.20916879 96619
LituanicaSAT 2
1 42768U 17036D 19080.72960163 .00001766 00000-0 79185-4 0 9990
2 42768 97.3653 140.1652 0015863 166.8622 193.3031 15.22411698 96773
Aalto 1
1 42775U 17036L 19079.81089923 .00000822 00000-0 39882-4 0 9994
2 42775 97.3614 138.6495 0014382 169.0440 191.1112 15.21177397 96548
URSA MAIOR
1 42776U 17036M 19079.91066516 .00000882 00000-0 42394-4 0 9997
2 42776 097.3622 138.8667 0014242 168.6434 191.5126 15.21298462096562
